Home > Weather > Mar del Plata > Past weeks

Flag for Argentina Weather for the Past 2 Weeks in Mar del Plata, Buenos Aires, Argentina

Now
37 °F

Fog.


Feels Like: 37 °F
Forecast: 42 / 57 °F
Wind: 2 mph from Southwest

Location: Ezeiza Aerodrome

Current Time: May 4, 2016 at 7:07:32 AM

Latest Report: May 4, 2016 at 6:00 AM


Visibility: 3 mi

Pressure: 30.15 "Hg

Humidity: 87%

Dew Point: 34 °F

Location of Mar del PlataLocation

Historic Weather in Mar del Plata — Graph

°F

Mar del Plata Temperature Yesterday

Maximum temperature yesterday: 59 °F (at 3:00 PM)
Minimum temperature yesterday: 41 °F (at 7:00 AM)
Average temperature yesterday: 51 °F

High & Low Weather Summary for the Past Weeks

 TemperatureHumidityPressure
High72 °F (Apr 21, 2:00 PM)100% (Apr 19, 5:30 AM)30.33 "Hg (Apr 19, 5:30 AM)
Low37 °F (Apr 28, 8:00 AM)33% (Apr 21, 2:00 PM)29.65 "Hg (Apr 23, 4:00 PM)
Average54 °F77%30.04 "Hg
* Reported Apr 19 5:00 AM — May 4 5:00 AM, Mar del Plata, Weather by CustomWeather, © 2016

Note: Actual official high and low records may vary slightly from our data, if they occured in-between our weather recording intervals... More about our weather records

Advertising

Mar del Plata Weather History for the Previous 24 Hours

Scroll right to see more
 ConditionsComfort  
Time TempWeatherWind HumidityBarometerVisibility
5:00 AM
Wed, May 4
39 °FFog.No wind87%30.15 "Hg3 mi
4:00 AM41 °FFog.3 mph87%30.15 "Hg3 mi
3:00 AM39 °FFog.No wind87%30.18 "Hg3 mi
2:00 AM41 °FFog.No wind87%30.21 "Hg3 mi
1:00 AM41 °FFog.No wind93%30.21 "Hg3 mi
12:00 AM46 °FFog.2 mph82%30.21 "Hg3 mi
11:00 PM
Tue, May 3
45 °FFog.2 mph81%30.24 "Hg3 mi
10:00 PM46 °FClear.No wind82%30.24 "Hg4 mi
9:00 PM48 °FClear.2 mph76%30.21 "Hg5 mi
8:00 PM52 °FClear.5 mph82%30.21 "Hg10 mi
7:00 PM52 °FClear.2 mph67%30.21 "Hg10 mi
6:00 PM54 °FPassing clouds.7 mph67%30.21 "HgN/A
5:00 PM57 °FPassing clouds.5 mph51%30.24 "HgN/A
4:00 PM59 °FScattered clouds.5 mph51%30.24 "HgN/A
3:00 PM59 °FScattered clouds.2 mph51%30.24 "HgN/A
2:00 PM57 °FScattered clouds.1 mph55%30.27 "HgN/A
1:00 PM57 °FScattered clouds.5 mph55%30.27 "HgN/A
12:00 PM55 °FScattered clouds.7 mph55%30.30 "HgN/A
11:00 AM54 °FPassing clouds.7 mph54%30.33 "HgN/A
10:00 AM52 °FSunny.8 mph62%30.33 "Hg10 mi
9:00 AM45 °FPassing clouds.5 mph81%30.33 "HgN/A
8:00 AM41 °FSunny.2 mph87%30.33 "Hg10 mi
7:00 AM41 °FSunny.2 mph87%30.30 "Hg10 mi
Weather by CustomWeather, © 2016

See weather overviewHow to use our weather pages